SCP
4 4 3 3 2 2 2 4 4 2 2 1 0 0 0 0 -0 -0 0 0 0 0
4 4 4 4 4 5 3 2 2 3 0 0 0 0 -0 -0 0 0 0 0 0 0
4 4 4 5 5 3 2 2 2 0 0 0 0 0 0 0 0 0 0 0 0 0
3 3 5 5 4 3 3 2 1 0 0 0 0 0 0 0 0 0 0 0 0 0
4 5 6 5 4 2 2 1 1 0 0 0 0 0 0 0 0 0 0 0 0 0
6 4 4 3 2 2 1 0 0 0 0 0 0 0 0 0 0 0 0 0 0 0
4 2 1 0 0 0 0 0 0 0 0 0 0 0 0 0 0 0 0 0 0 0
0 0 0 0 0 0 0 0 0 0 0 0 0 0 0 0 0 0 0 0 0 0
0 0 0 0 0 0 0 0 0 0 0 0 0 0 0 0 0 0 0 0 0 0
0 0 0 0 0 0 0 0 0 0 0 0 0 0 0 0 0 0 0 0 0 0
0 0 0 0 0 0 0 0 0 0 0 0 0 0 0 0 0 0 0 0 0 0
0 0 0 0 0 0 0 0 0 0 0 0 0 0 0 0 0 0 0 0 0 0
0 0 0 0 0 0 0 0 0 0 0 0 0 0 0 0 0 0 0 0 0 0
0 0 0 0 0 0 0 0 0 0 0 0 0 0 0 0 0 0 0 0 0 0
Wind_Speed_500mb
86 87 80 68 59 57 55 53 55 46 36 32 28 21 16 5 10 28 40 40 25 25
81 84 81 73 62 62 53 48 47 42 37 31 17 8 2 3 17 52 38 24 21 22
72 76 79 74 72 57 49 46 50 52 41 39 16 10 12 22 42 39 30 21 21 21
76 73 73 74 67 54 47 46 46 45 50 37 34 24 22 38 46 31 24 18 21 26
78 67 70 70 64 51 46 40 41 42 44 31 42 39 26 46 36 28 19 20 28 31
73 73 72 65 60 56 48 45 44 40 39 45 37 28 43 36 30 21 23 27 27 24
72 72 71 66 65 61 57 53 54 46 40 36 41 40 33 32 26 25 21 19 14 9
76 75 70 64 68 71 61 61 56 48 44 50 40 39 34 25 20 14 12 10 8 7
79 77 73 74 79 70 70 63 56 57 52 47 41 34 26 19 15 12 12 12 8 2
85 82 79 83 80 78 74 70 67 58 52 45 37 28 19 16 16 18 17 10 3 5
88 88 94 90 87 89 81 76 66 56 48 40 30 24 22 21 18 16 11 5 3 6
99 106 106 101 94 91 83 71 62 52 44 35 33 30 25 18 16 12 9 5 4 3
107 106 109 101 97 88 77 70 61 52 42 36 35 32 23 18 13 11 9 6 4 6
102 106 104 99 88 80 71 66 58 51 46 38 30 29 21 16 14 13 14 14 14 12
Wind_Direction_500mb
227 228 229 225 224 224 225 222 219 218 228 222 165 128 337 103 235 283 267 262 272 286
223 226 229 228 223 223 226 226 215 214 205 157 126 134 122 237 261 260 256 255 275 288
221 223 227 226 221 220 216 220 218 222 207 173 204 264 173 261 249 237 238 259 283 287
224 221 217 220 217 210 206 208 222 225 203 207 232 208 163 240 230 225 248 263 273 287
219 211 212 207 210 206 203 204 197 209 204 212 181 180 181 215 218 232 242 269 279 283
212 212 209 211 201 194 196 197 197 201 192 199 203 210 189 207 221 230 246 266 275 281
211 202 207 198 199 189 187 185 188 194 195 194 193 186 200 205 213 233 260 266 266 255
201 200 199 199 187 179 182 184 191 187 176 179 189 192 194 203 222 243 245 230 227 252
187 193 192 179 173 178 178 179 176 172 176 183 185 191 201 215 227 220 203 190 190 238
184 184 181 172 171 171 169 168 170 172 177 179 185 192 192 190 179 176 171 163 146 10
180 179 169 167 167 163 165 165 166 171 173 173 167 154 157 157 161 155 142 125 68 35
175 169 164 164 163 163 162 161 160 165 166 162 153 151 153 153 145 138 128 116 85 62
169 163 162 161 160 158 161 158 156 156 155 153 151 149 152 145 142 135 124 118 97 83
162 160 160 157 156 155 156 153 152 152 149 148 148 144 144 144 135 130 117 107 97 84
Wind_Speed_850mb
86 87 80 68 59 57 55 53 55 46 36 32 28 21 16 5 10 28 40 40 25 25
81 84 81 73 62 62 53 48 47 42 37 31 17 8 2 3 17 52 38 24 21 22
72 76 79 74 72 57 49 46 50 52 41 39 16 10 12 22 42 39 30 21 21 21
76 73 73 74 67 54 47 46 46 45 50 37 34 24 22 38 46 31 24 18 21 26
78 67 70 70 64 51 46 40 41 42 44 31 42 39 26 46 36 28 19 20 28 31
73 73 72 65 60 56 48 45 44 40 39 45 37 28 43 36 30 21 23 27 27 24
72 72 71 66 65 61 57 53 54 46 40 36 41 40 33 32 26 25 21 19 14 9
76 75 70 64 68 71 61 61 56 48 44 50 40 39 34 25 20 14 12 10 8 7
79 77 73 74 79 70 70 63 56 57 52 47 41 34 26 19 15 12 12 12 8 2
85 82 79 83 80 78 74 70 67 58 52 45 37 28 19 16 16 18 17 10 3 5
88 88 94 90 87 89 81 76 66 56 48 40 30 24 22 21 18 16 11 5 3 6
99 106 106 101 94 91 83 71 62 52 44 35 33 30 25 18 16 12 9 5 4 3
107 106 109 101 97 88 77 70 61 52 42 36 35 32 23 18 13 11 9 6 4 6
102 106 104 99 88 80 71 66 58 51 46 38 30 29 21 16 14 13 14 14 14 12
Wind_Direction_850mb
227 228 229 225 224 224 225 222 219 218 228 222 165 128 337 103 235 283 267 262 272 286
223 226 229 228 223 223 226 226 215 214 205 157 126 134 122 237 261 260 256 255 275 288
221 223 227 226 221 220 216 220 218 222 207 173 204 264 173 261 249 237 238 259 283 287
224 221 217 220 217 210 206 208 222 225 203 207 232 208 163 240 230 225 248 263 273 287
219 211 212 207 210 206 203 204 197 209 204 212 181 180 181 215 218 232 242 269 279 283
212 212 209 211 201 194 196 197 197 201 192 199 203 210 189 207 221 230 246 266 275 281
211 202 207 198 199 189 187 185 188 194 195 194 193 186 200 205 213 233 260 266 266 255
201 200 199 199 187 179 182 184 191 187 176 179 189 192 194 203 222 243 245 230 227 252
187 193 192 179 173 178 178 179 176 172 176 183 185 191 201 215 227 220 203 190 190 238
184 184 181 172 171 171 169 168 170 172 177 179 185 192 192 190 179 176 171 163 146 10
180 179 169 167 167 163 165 165 166 171 173 173 167 154 157 157 161 155 142 125 68 35
175 169 164 164 163 163 162 161 160 165 166 162 153 151 153 153 145 138 128 116 85 62
169 163 162 161 160 158 161 158 156 156 155 153 151 149 152 145 142 135 124 118 97 83
162 160 160 157 156 155 156 153 152 152 149 148 148 144 144 144 135 130 117 107 97 84